Location: Arclight Observatory
(36.5667°N, 87.3333°W)
Time: 09:16:36
(UTC-06:00)

Daily predictions for brighter satellites

Satellite Brightness Start Highest point End
(mag) Time Altitude Azimuth Time Altitude Azimuth Time Altitude Azimuth
Cosmos 1538 Rocket 4.4 17:24:06 10° S 17:29:08 47° ESE 17:34:15 10° NNE
MOS 1 4.4 17:24:57 10° SSE 17:30:35 90° ESE 17:36:18 10° NNW
Sich 1 4.0 17:27:49 10° SSE 17:31:34 27° E 17:35:20 10° NNE
Thor Agena Rocket 3.6 17:26:25 10° NNE 17:31:40 88° WNW 17:36:48 10° SSW
SPOT 3 Rocket 3.6 17:28:37 10° SSE 17:33:46 89° WSW 17:38:58 10° NNW
Milstar 3 4.3 17:27:32 10° W 17:34:00 33° SSW 17:39:55 10° SE
MSX 3.8 17:28:40 10° SSE 17:34:21 81° ENE 17:40:07 10° N
Cosmos 1703 3.5 17:31:08 10° SSE 17:34:50 45° E 17:38:35 10° NNE
Coronas F rocket 3.1 17:35:26 10° ESE 17:36:28 12° E 17:37:29 10° ENE
Cosmos 2237 Rocket 3.5 17:35:23 10° SW 17:40:39 41° WNW 17:45:59 10° N
Meteor 2-10 4.0 17:36:57 10° N 17:42:07 79° E 17:47:27 10° SSE
Cosmos 1300 3.5 17:38:30 10° NNW 17:42:16 57° W 17:46:02 10° S
SOZ 4.0 17:40:08 10° SW 17:42:25 83° SE 17:44:49 10° NE
Cosmos 1633 Rocket 3.8 17:39:26 10° SSE 17:43:21 32° E 17:47:17 10° NNE
SJ-6B 4.3 17:40:42 10° ESE 17:43:31 18° ENE 17:46:22 10° NNE
Timation 1 Rocket 4.3 17:38:25 10° NNW 17:44:26 71° ENE 17:50:25 10° SSE
CZ-4 R/B 3.2 17:43:49 10° SSW 17:47:24 35° W 17:51:01 10° NNW
SL-16 R/B 2.3 17:44:06 10° SSW 17:49:45 83° WNW 17:55:26 10° NNE
Cosmos 1900 4.3 17:50:10 10° NNW 17:55:09 74° ENE 18:00:09 10° SSE
Cosmos 773 Rocket 4.0 17:55:23 10° S 18:00:27 61° ESE 18:05:36 10° NNE
ALOS 3.6 17:58:06 10° ESE 18:01:20 19° ENE 18:04:34 10° NNE
USA 215 4.1 17:56:43 12° E 18:01:45 30° NNE 18:07:14 10° NNW
Cosmos 1484 Rocket 3.1 17:58:48 10° S 18:02:43 72° WSW 18:06:44 10° NNW
IDEFIX/ARIANE 42P 4.5 17:58:18 10° SSW 18:02:59 34° W 18:07:43 10° NNW
Cosmos 2297 3.8 18:00:24 10° NNW 18:06:08 86° WSW 18:11:52 10° SSE
Meteor 1-28 Rocket 3.1 18:03:00 10° NNE 18:06:44 79° E 18:10:27 10° S
Cosmos 1340 Rocket 4.3 18:04:52 10° SSW 18:08:33 38° WNW 18:12:14 10° N
METEOR-M 4.3 18:03:38 10° SE 18:08:44 47° ENE 18:13:51 10° N
Cosmos 292 Rocket 4.1 18:05:48 10° S 18:10:15 42° ESE 18:14:24 12° NE
Cosmos 1707 Rocket 3.5 18:08:02 10° N 18:12:23 86° E 18:16:45 10° S
NOAA 12 4.1 18:08:29 10° SSE 18:13:35 57° ENE 18:18:45 10° N
COSMO-SKYMED 1 3.3 18:11:04 10° N 18:15:20 56° WNW 18:19:34 10° SSW
Cosmos 2112 Rocket 4.5 18:15:04 10° SSE 18:19:50 38° E 18:23:17 18° NE
Cosmos 1666 Rocket 3.8 18:16:00 10° SSW 18:20:20 72° W 18:24:43 10° N
Cosmos 1869 3.4 18:21:23 10° N 18:25:22 54° E 18:29:19 10° SSE
Cosmos 1943 3.9 18:22:00 10° SSE 18:26:53 31° ESE 18:28:36 26° ENE
Cosmos 1626 3.4 18:24:25 10° SSW 18:27:58 42° W 18:31:32 10° N
Lacrosse 4 Rocket 1.3 18:25:45 10° NNW 18:29:45 57° ENE 18:33:02 15° SE
ATLAS 5 CENTAUR R/B 4.2 18:27:37 10° NNE 18:29:30 12° NNE 18:29:30 12° NNE
Cosmos 1933 Rocket 3.7 18:27:34 10° S 18:31:52 52° E 18:35:24 15° NNE
TIMED 4.4 18:29:47 10° NNW 18:34:10 72° ENE 18:38:31 10° SSE
Resurs 01 Rocket 2.1 18:32:34 10° SE 18:36:40 38° ENE 18:40:47 10° N
Cosmos 1184 Rocket 4.5 18:35:30 10° SSW 18:38:35 35° WNW 18:41:41 10° N
SL-19 R/B 4.3 18:34:44 10° SSE 18:40:27 57° ENE 18:45:56 10° N
H-2A ROCKET BODY 3.7 18:15:00 10° WSW 18:41:34 55° S 18:45:25 23° ESE
USA 229 DEB 4.1 18:38:55 10° SW 18:45:41 62° NW 18:51:58 13° NNE
USA 229 4.1 18:39:00 10° SW 18:45:46 63° NW 18:52:02 13° NNE
FREGAT/IRIS 2.9 18:43:52 10° S 18:46:54 67° W 18:49:57 10° NNW
Cosmos 1943 Rocket 4.3 18:44:28 10° NNE 18:44:33 10° NNE 18:44:33 10° NNE
Iridium 4 Rocket 3.1 18:44:24 10° S 18:48:53 78° W 18:53:07 10° N
Cosmos 1627 Rocket 4.4 18:43:10 10° S 18:49:17 66° E 18:55:21 10° NNE
Cosmos 1655 Rocket 4.1 18:44:04 10° SSE 18:50:10 51° E 18:56:16 10° NNE
Spot 2 Rocket 3.5 18:45:59 10° SSE 18:50:54 55° ENE 18:55:49 10° N
Cosmos 1470 Rocket 3.6 18:49:08 10° S 18:53:29 78° W 18:57:06 15° N
Cosmos 1603 4.0 18:49:10 10° SSW 18:54:44 66° WNW 18:59:29 14° NNE
Tiangong 1 2.1 18:52:03 10° WSW 18:54:18 43° WNW 18:54:18 43° WNW
Cosmos 1242 Rocket 2.5 18:51:59 10° NNW 18:55:28 75° W 18:58:57 10° S
CZ-4C R/B 4.4 18:53:22 10° N 18:56:24 15° NNE 18:56:24 15° NNE
Cosmos 1455 4.2 18:54:18 10° NNW 18:57:39 30° W 19:01:00 10° SSW
NOSS 3-1 (A) 3.5 18:54:03 10° S 18:59:30 49° ESE 19:00:06 47° E
FengYun 1-2 T 4.1 18:57:01 10° SSE 19:02:35 83° ENE 19:08:07 10° NNW
Cosmos 2026 Rocket 3.9 19:08:05 10° S 19:14:18 86° W 19:20:27 10° N
Meteor 2-20 4.5 19:17:31 10° S 19:23:37 79° W 19:29:47 10° N
Cosmos 2369 Rocket 2.9 19:25:19 10° NNW 19:28:57 40° N 19:28:57 40° N
Cosmos 972 Rocket 4.2 19:26:11 10° NNW 19:31:23 82° NW 19:31:23 82° NW
NOSS 3-1 (C) 3.6 19:30:58 10° SW 19:36:38 64° NW 19:37:28 58° NNW
ALOS 3.6 19:34:06 10° SSW 19:38:27 39° W 19:42:49 10° NNW
USA 215 3.1 19:44:05 86° S 19:44:13 87° SW 19:50:48 10° NW
ATLAS 2A CENTAUR R/B 4.2 19:46:13 10° SSW 19:46:29 12° SSW 19:46:29 12° SSW
CZ-3A R/B 3.9 19:52:00 10° WNW 19:56:32 49° SW 20:06:36 10° SSE
Resurs 01 Rocket 4.3 20:10:22 10° SW 20:13:14 17° W 20:16:07 10° NW
ATLAS 5 CENTAUR R/B 4.5 20:09:56 10° NNW 20:11:05 16° NNW 20:11:05 16° NNW
